Capitol Logistics 2535


KOAK
Metropolitan Oakland International Airport
Oakland, California, US
KMEM
Memphis International Airport
Memphis, Tennessee, US

Route Details

Aircraft Information
Primary: Boeing 747-400BCF
Backup: Boeing 767-300BDSF
Date Restrictions
Between:Nov 16, 2019
Dec 31, 2019
Route Data
Distance: 1561nm
Sched. Duration: 3h 35m
Avg. Duration: 3h 31m (-4m)
Times Flown: 6
Recm'd Route: HUSSH2 SYRAH Q128 JSICA MLF DVC LBL RZC BRBBQ3
Planned Altitude: 35,000ft
Origin Wx: KOAK 231553Z VRB03KT 10SM BKN018 BKN060 09/04 A2998 RMK AO2 SLP151 T00940044
Dest. Wx: KMEM 231554Z 09010KT 10SM FEW250 04/M07 A3026 RMK AO2 PK WND 05040/1551 SLP248 T00391072 $
Notes: SEASONAL FLIGHT | FEDEX SURGE OPS CONTRACT

Financial History
Total Freight: 983,181lbs
Average Load: 163,864lbs/flt
Fuel Used: 339,166lbs
Avg. Fuel Used: 56,528lbs/flt
Fuel Expense: $315,424
Avg. Fuel Expense: $52,571
Avg. Fuel Cost: $0.93/lbs
Total Gross Income: $1,858,212
Pilot Pay: $1,344
Total Expenses: $200,999
Total Revenue: $1,336,347
Average Revenue: $309,702.01